Temperature
15 15 15 15 15 15 15 15 16 16 16 16 16 16 16 16 16 15 15 15 16 16 16 16 16 16 16 16 16 16 17 17 17 17 17 17 17 17 17 17 17 17 17
15 15 15 15 15 15 15 15 15 15 15 15 15 15 15 15 15 15 15 15 15 15 16 16 16 16 16 16 16 16 16 16 17 17 17 17 17 17 17 17 17 17 17
15 15 15 15 15 15 15 15 15 15 15 15 15 15 15 15 15 15 15 15 15 15 15 15 16 16 16 16 16 16 16 16 16 16 16 17 17 17 17 17 17 17 17
15 15 15 15 15 15 15 15 15 15 15 15 15 15 15 15 15 15 15 15 15 15 15 15 15 15 16 16 16 16 16 16 16 16 16 16 16 17 17 17 17 17 17
15 15 15 15 15 15 15 15 15 15 15 15 15 15 15 15 15 15 15 15 15 15 15 15 15 15 15 15 15 16 16 16 16 16 16 16 16 16 17 17 17 17 17
15 15 15 15 15 15 15 15 15 15 15 15 15 15 15 15 15 15 15 15 15 15 15 15 15 15 15 15 15 15 15 16 16 16 16 16 16 16 16 16 16 16 16
15 15 15 15 15 15 15 15 15 15 15 15 15 14 14 14 14 14 14 14 15 14 15 15 15 15 15 15 15 15 15 15 15 15 16 16 16 16 16 16 16 16 16
15 15 15 15 15 15 15 15 15 15 15 15 15 15 14 14 14 14 14 14 14 14 14 14 14 14 14 15 15 15 15 15 15 15 15 15 16 16 16 16 16 16 16
15 15 15 15 15 15 15 15 15 15 15 15 15 15 15 14 13 13 13 14 14 14 14 14 14 14 14 14 14 15 15 15 15 15 15 15 15 15 16 16 16 16 16
15 15 15 15 15 15 15 15 15 15 15 15 15 15 14 14 14 13 13 13 13 13 13 14 14 14 14 14 14 14 14 14 14 14 15 15 15 15 15 15 16 16 16
15 14 14 15 15 15 14 15 15 15 15 14 14 14 14 14 14 14 13 13 13 13 13 13 13 13 14 14 14 14 14 14 14 14 14 14 15 15 15 15 15 15 15
14 14 14 14 14 14 14 14 14 14 14 14 14 14 14 14 14 14 13 13 13 13 13 13 13 13 13 13 14 14 14 14 14 14 14 14 14 14 15 15 15 15 15
15 14 14 14 14 14 14 14 14 14 14 14 14 14 14 14 14 14 14 13 13 13 13 13 13 13 13 13 13 13 14 14 14 14 14 14 14 14 14 14 14 14 15
15 14 14 14 14 14 14 14 14 14 14 14 14 14 14 14 14 14 14 13 13 13 13 13 13 13 13 13 13 13 13 13 13 14 14 14 14 14 14 14 14 14 14
14 14 14 14 14 14 14 14 14 14 14 14 14 14 14 14 13 13 13 13 13 13 12 12 12 12 12 13 13 13 13 13 13 13 13 13 13 14 14 14 14 14 14
14 14 14 14 14 14 14 14 14 14 14 14 13 13 13 13 13 13 13 13 13 13 12 12 12 12 12 12 12 12 12 12 13 13 13 13 13 13 13 13 13 13 13
14 14 14 14 14 14 13 14 13 13 13 13 13 13 13 13 13 13 13 13 13 12 12 12 12 12 12 12 12 12 12 12 12 12 12 12 12 12 13 13 13 13 13
14 14 14 14 14 14 13 13 13 13 13 13 13 13 13 13 13 13 13 13 13 12 12 12 12 12 12 12 12 12 12 12 12 12 12 12 12 12 12 12 12 12 12
15 14 14 14 14 13 13 13 13 13 13 13 13 13 13 13 13 13 13 13 12 12 12 12 12 12 12 12 12 12 12 12 12 12 12 12 12 12 12 12 12 12 12
15 14 14 14 14 13 13 13 13 13 13 13 13 13 13 13 13 13 12 12 12 12 12 12 12 12 11 11 11 11 12 12 12 11 11 11 11 11 11 11 11 11 11
15 14 14 14 13 13 13 13 13 13 13 13 13 13 13 12 12 12 12 12 12 12 12 11 11 11 11 11 11 11 11 11 11 11 11 11 11 11 11 11 11 11 10
14 14 14 14 14 13 13 13 13 13 13 13 13 13 12 12 12 12 12 12 11 11 11 11 11 11 10 10 10 10 10 10 10 10 10 10 10 10 10 10 10 10 10
15 14 14 14 14 13 13 13 13 13 13 13 13 12 12 12 12 12 12 11 11 11 11 11 10 10 10 10 10 10 9 9 9 9 9 10 10 9 9 9 9 9 9
15 14 14 14 14 14 13 13 13 13 13 13 13 12 12 12 12 11 11 11 11 11 11 10 10 10 10 9 9 9 9 9 9 9 9 9 9 9 9 9 9 9 9
15 14 14 14 14 14 13 13 13 13 13 13 12 12 12 12 12 11 11 11 11 10 10 10 10 9 9 9 9 9 8 8 8 9 8 8 8 8 8 8 8 8 8
14 14 14 14 14 14 13 13 13 13 12 12 12 12 12 12 11 11 11 10 10 10 10 10 9 9 9 9 8 8 8 8 7 7 8 7 7 7 7 7 8 8 8
Wind_Speed
4 4 5 7 7 7 6 6 6 6 7 7 8 7 7 7 8 9 9 12 12 11 11 10 10 10 10 10 10 10 9 9 8 8 8 8 7 7 7 6 4 4 4
5 4 4 5 6 7 6 6 6 5 5 5 6 7 7 8 9 10 10 12 14 13 12 12 12 12 11 11 11 11 11 10 9 9 9 8 8 8 7 6 5 4 4
6 5 4 4 5 7 7 7 7 6 5 6 6 7 7 8 9 10 11 11 12 14 14 14 14 13 13 13 13 12 12 11 10 10 9 9 9 9 8 7 5 4 5
8 7 4 4 6 7 6 4 4 5 5 5 6 6 6 7 9 11 11 12 12 12 13 15 15 15 15 14 13 13 12 12 12 11 10 9 9 9 9 9 7 6 6
9 8 5 5 6 6 5 4 4 4 4 5 5 6 6 6 7 10 10 12 12 12 12 14 15 16 16 16 15 13 13 12 12 12 10 10 9 9 8 8 8 7 6
9 8 6 7 7 5 5 4 5 5 4 4 6 7 6 6 7 8 8 10 12 12 13 14 13 13 16 17 16 15 14 13 13 12 11 10 10 9 8 7 7 7 6
9 8 6 6 6 5 4 4 3 5 5 3 4 4 5 6 8 7 7 8 10 12 13 14 13 13 13 15 16 16 15 14 13 12 12 11 9 9 9 8 7 7 7
8 7 6 4 4 4 6 5 4 3 4 4 3 3 3 5 5 7 6 7 7 10 11 13 13 13 13 13 14 16 15 14 13 13 12 11 10 10 9 8 7 6 6
8 8 7 6 5 4 4 4 4 4 3 4 4 3 4 1 2 4 5 6 6 6 7 10 12 13 13 13 13 14 16 15 14 14 13 13 12 12 11 10 8 7 6
7 7 8 7 6 4 4 4 4 3 3 3 3 4 3 3 3 2 3 4 6 7 6 8 10 12 13 12 13 15 16 15 15 14 14 13 13 12 12 12 10 9 8
6 6 7 7 6 5 4 5 5 5 3 3 2 2 3 4 3 3 1 3 4 4 4 6 7 10 12 12 12 14 15 15 15 14 14 13 12 12 12 12 12 11 10
3 5 6 6 5 5 4 5 5 6 5 5 4 3 2 2 2 3 2 1 2 3 3 5 7 9 10 11 12 14 14 14 14 13 13 13 13 12 12 12 11 10 10
1 2 3 3 4 4 5 5 5 5 5 5 4 3 3 2 2 2 3 2 2 2 3 3 5 8 9 11 11 13 13 14 14 13 13 13 13 13 13 13 12 11 10
1 0 2 3 4 5 5 5 4 4 4 5 5 4 3 3 2 2 2 3 2 3 3 3 3 7 9 9 10 11 11 13 14 13 13 12 13 13 13 13 12 12 11
1 2 3 3 4 5 5 5 4 3 4 4 4 4 3 3 3 2 2 3 3 2 2 3 3 4 8 8 10 10 10 12 13 13 12 12 12 12 12 13 13 12 11
2 3 3 3 3 4 4 5 3 3 4 3 3 4 4 2 3 3 2 2 2 3 1 2 2 3 5 7 9 9 9 11 12 12 11 11 12 12 12 13 13 13 12
3 3 3 3 3 3 3 4 3 3 4 3 3 3 3 2 3 3 2 2 2 2 2 1 2 3 3 5 7 9 9 9 10 12 12 11 11 11 12 12 12 12 12
4 4 4 4 3 3 3 4 3 3 3 2 2 3 2 2 3 2 2 2 2 1 2 0 2 3 3 4 5 5 7 8 9 10 11 11 11 11 11 11 12 12 12
4 4 4 4 4 4 3 3 3 3 2 2 2 2 1 2 2 1 2 2 1 1 1 1 1 2 2 3 3 4 5 6 8 9 9 10 11 12 12 12 12 12 11
5 5 4 4 4 4 4 3 3 3 2 2 1 2 2 2 2 1 1 1 1 2 1 1 1 2 2 3 2 3 4 4 5 7 8 9 11 11 12 12 12 12 12
5 5 4 4 3 3 4 5 4 4 3 2 1 1 1 2 2 2 1 1 2 1 1 1 1 2 2 2 3 2 3 5 4 4 4 6 8 8 9 10 10 11 11
3 4 4 4 4 4 6 7 6 4 4 3 2 1 1 1 1 1 1 2 2 2 1 1 1 1 3 2 2 2 2 3 4 3 3 5 5 5 7 8 10 11 12
4 4 4 4 4 5 6 7 8 5 4 3 3 2 1 1 1 1 0 1 1 0 2 3 2 3 3 3 2 2 2 3 4 4 2 5 4 5 7 8 10 11 12
4 4 4 4 4 4 6 7 7 4 3 3 3 4 3 2 2 3 2 0 1 2 2 2 3 4 4 4 3 3 3 3 4 3 1 3 4 4 6 8 10 11 10
4 4 4 4 4 5 6 7 6 3 3 3 3 3 4 4 4 4 2 2 2 3 4 4 4 5 6 5 3 0 1 2 4 4 1 2 3 4 4 5 8 10 10
5 4 3 4 5 4 6 6 6 3 3 2 2 2 4 5 5 4 3 3 4 5 3 3 4 5 5 5 5 3 3 2 3 4 2 2 3 3 4 3 5 8 10
Wind_Direction
37 32 31 33 35 40 44 41 40 45 48 51 56 55 45 39 38 38 32 37 41 44 49 54 57 56 56 51 46 49 54 54 58 55 53 52 52 52 53 61 69 85 102
55 48 38 34 33 38 48 53 50 51 49 53 50 48 45 41 41 42 42 40 41 43 45 48 54 58 57 54 49 51 53 53 54 52 52 52 53 51 48 50 59 84 97
56 57 47 35 27 40 55 58 51 52 54 53 44 41 43 42 42 43 44 41 39 40 43 47 51 53 54 52 50 51 52 51 50 50 48 48 49 48 45 46 53 81 98
62 62 52 32 30 47 53 58 47 57 52 54 51 41 41 40 41 45 46 43 40 38 41 47 49 49 49 48 49 49 50 49 48 48 46 47 48 46 43 46 52 71 87
61 64 54 37 43 53 45 56 53 62 63 61 65 52 42 42 38 45 45 43 43 42 43 45 47 47 46 45 45 47 47 45 44 44 46 46 47 45 44 46 56 70 84
59 62 55 40 49 55 44 51 63 57 59 57 73 62 47 42 43 42 40 42 43 45 46 45 43 42 43 43 43 43 44 43 42 42 43 45 44 43 46 50 59 66 85
58 61 56 45 45 56 53 56 72 65 47 31 71 53 35 40 43 37 36 40 39 41 46 46 44 44 40 39 38 40 41 41 43 42 41 41 42 41 43 47 54 63 78
55 60 58 53 47 57 52 46 58 79 49 32 82 87 41 18 19 27 31 39 34 37 42 44 43 42 40 38 34 36 36 36 40 41 39 38 41 40 41 38 42 62 71
57 61 61 63 55 60 61 50 54 83 82 41 47 106 117 125 5 7 23 34 33 34 32 37 39 37 37 35 33 32 35 35 36 38 38 39 41 41 38 36 41 53 73
55 61 64 64 60 57 60 54 58 69 93 73 46 46 82 129 118 55 3 13 30 36 28 32 33 34 33 32 31 30 33 34 32 33 33 35 36 38 38 39 42 47 55
44 55 63 65 61 57 57 57 59 61 70 86 80 72 67 60 70 110 69 354 9 14 20 23 28 30 29 28 28 28 30 31 29 29 30 31 33 35 38 42 44 43 42
23 42 61 64 65 63 61 61 65 67 68 75 72 70 88 95 88 100 113 50 2 340 357 14 23 21 23 25 26 27 29 30 29 29 30 31 33 33 33 34 38 38 36
20 4 59 69 70 75 76 73 68 64 65 73 73 68 68 78 107 113 113 104 41 346 346 357 7 16 18 22 23 23 27 30 33 33 33 33 34 33 32 31 29 29 27
196 127 92 85 81 84 86 80 70 69 69 71 70 68 66 54 68 94 121 125 77 16 9 344 337 5 9 17 21 25 23 26 31 34 34 34 32 30 28 24 21 21 20
172 127 110 101 91 89 92 91 74 67 73 68 67 66 62 44 54 66 88 115 127 90 6 332 338 343 358 16 21 24 21 21 26 29 31 31 29 26 23 21 18 15 14
153 137 121 113 106 98 99 95 83 78 82 69 71 71 61 46 52 57 74 81 99 133 136 311 306 318 346 9 16 22 22 23 24 23 25 27 26 25 23 21 16 13 11
161 154 147 134 128 120 114 105 98 92 90 74 64 76 66 64 66 57 66 74 76 105 134 306 319 330 352 358 0 12 16 18 16 20 24 25 22 19 16 14 11 7 5
169 160 152 143 142 139 133 127 128 111 112 107 93 87 69 73 63 57 70 75 79 99 134 330 334 342 341 340 345 354 3 6 7 11 16 17 15 12 10 8 5 2 0
170 162 155 157 158 156 149 150 150 144 141 146 145 132 124 100 73 60 70 74 65 72 101 127 320 322 321 337 344 345 351 352 358 0 5 9 8 6 3 1 360 358 357
163 167 167 170 168 165 166 163 156 150 147 154 165 158 161 162 170 154 106 101 95 77 75 89 336 328 323 325 354 344 342 341 341 350 352 354 355 359 358 357 356 356 356
169 165 162 166 169 173 182 174 167 166 165 170 178 186 191 191 183 167 151 160 134 108 86 65 335 339 333 337 329 320 325 322 323 340 337 339 342 344 344 345 349 351 352
161 156 166 170 181 200 194 183 172 170 176 181 191 218 231 242 226 195 170 160 151 152 173 170 245 265 283 278 292 306 316 334 321 326 333 315 329 323 327 332 338 343 344
165 170 183 181 196 212 202 191 184 171 179 185 189 195 212 223 185 155 179 31 356 226 193 185 208 242 254 254 260 285 281 275 275 290 318 302 312 307 314 322 331 335 337
173 182 191 193 199 216 208 200 191 173 173 194 201 198 203 225 210 178 159 108 306 297 276 233 216 240 247 245 224 238 252 272 278 283 281 288 302 296 304 306 316 325 330
180 187 189 189 200 230 221 208 187 164 181 219 229 213 206 217 229 206 172 211 277 290 288 276 271 280 288 289 272 246 309 313 302 294 264 259 288 297 292 288 301 314 319
187 184 191 198 202 220 224 213 190 171 189 224 241 241 230 224 233 224 200 205 247 267 278 305 308 304 303 297 289 243 220 242 271 285 263 248 280 310 305 281 289 302 307
Height
1552 1551 1550 1549 1549 1549 1548 1548 1548 1548 1548 1548 1548 1548 1548 1548 1548 1547 1546 1546 1545 1544 1544 1544 1543 1543 1543 1543 1542 1541 1540 1541 1541 1541 1540 1540 1539 1538 1538 1538 1538 1539 1539
1553 1552 1551 1550 1550 1550 1549 1549 1549 1549 1550 1550 1550 1550 1550 1550 1549 1549 1548 1547 1547 1546 1546 1545 1545 1545 1544 1544 1543 1542 1542 1542 1542 1541 1541 1540 1540 1539 1538 1538 1537 1538 1539
1554 1553 1552 1551 1551 1550 1550 1550 1550 1551 1551 1551 1551 1551 1551 1551 1551 1550 1550 1549 1549 1548 1548 1547 1546 1546 1546 1545 1545 1544 1544 1544 1543 1542 1542 1541 1540 1539 1538 1537 1535 1536 1538
1554 1554 1553 1552 1552 1551 1551 1551 1551 1552 1552 1552 1552 1553 1553 1552 1552 1552 1551 1551 1550 1550 1549 1549 1548 1548 1547 1547 1546 1546 1545 1545 1544 1543 1543 1542 1541 1540 1539 1537 1535 1535 1537
1555 1555 1554 1553 1552 1552 1552 1552 1552 1553 1553 1553 1554 1554 1554 1554 1554 1553 1553 1553 1552 1552 1551 1551 1550 1549 1549 1548 1548 1547 1547 1546 1545 1544 1544 1543 1542 1541 1540 1538 1536 1535 1536
1556 1556 1555 1554 1553 1553 1553 1553 1554 1554 1554 1555 1555 1555 1556 1556 1555 1555 1554 1554 1554 1553 1553 1552 1552 1551 1550 1550 1549 1548 1548 1547 1546 1545 1544 1543 1543 1541 1540 1539 1537 1536 1536
1558 1557 1556 1555 1555 1554 1554 1554 1555 1555 1555 1556 1556 1557 1557 1557 1557 1556 1556 1556 1555 1555 1554 1554 1553 1552 1552 1551 1551 1550 1549 1548 1547 1546 1545 1545 1543 1542 1540 1539 1538 1537 1537
1559 1558 1557 1556 1556 1555 1555 1555 1555 1556 1556 1557 1557 1557 1558 1560 1558 1558 1558 1557 1557 1556 1556 1555 1554 1554 1553 1552 1552 1551 1550 1549 1548 1547 1546 1545 1544 1542 1540 1539 1537 1537 1538
1560 1559 1559 1558 1557 1557 1556 1556 1556 1557 1557 1558 1558 1559 1559 1559 1560 1560 1559 1559 1558 1558 1557 1557 1556 1555 1554 1553 1553 1552 1551 1550 1549 1548 1547 1546 1544 1542 1541 1538 1536 1536 1539
1561 1561 1560 1559 1559 1558 1557 1557 1557 1557 1558 1558 1558 1558 1559 1559 1560 1561 1561 1560 1560 1559 1559 1558 1557 1556 1555 1554 1553 1553 1552 1551 1550 1549 1548 1547 1546 1544 1542 1539 1537 1537 1540
1562 1562 1561 1561 1560 1559 1559 1558 1558 1558 1558 1559 1559 1559 1559 1560 1560 1560 1561 1562 1561 1561 1560 1559 1558 1558 1557 1555 1554 1553 1552 1551 1550 1549 1548 1547 1546 1545 1543 1541 1541 1541 1542
1563 1563 1562 1562 1561 1561 1560 1560 1559 1559 1559 1559 1560 1560 1560 1560 1560 1561 1561 1561 1562 1562 1561 1560 1560 1559 1558 1556 1555 1554 1552 1551 1549 1548 1548 1547 1546 1545 1544 1543 1543 1543 1543
1564 1563 1563 1563 1562 1562 1561 1561 1561 1561 1561 1560 1560 1561 1561 1561 1561 1562 1562 1562 1562 1562 1562 1561 1560 1559 1558 1557 1556 1554 1553 1551 1549 1548 1547 1547 1546 1545 1545 1544 1543 1543 1543
1564 1564 1564 1563 1563 1563 1563 1562 1562 1562 1562 1562 1562 1562 1562 1562 1562 1562 1563 1563 1563 1563 1562 1562 1561 1560 1559 1558 1556 1555 1553 1552 1550 1548 1547 1547 1546 1546 1545 1544 1543 1543 1543
1564 1564 1564 1564 1564 1564 1563 1563 1563 1563 1563 1563 1563 1563 1563 1563 1563 1563 1563 1563 1564 1563 1563 1562 1561 1560 1559 1558 1557 1555 1554 1552 1550 1549 1548 1547 1547 1546 1545 1544 1543 1542 1541
1564 1564 1564 1564 1564 1564 1564 1564 1564 1564 1564 1564 1564 1564 1564 1564 1564 1564 1564 1564 1564 1564 1563 1563 1562 1561 1559 1558 1557 1556 1554 1553 1551 1550 1548 1547 1546 1545 1544 1543 1542 1541 1540
1563 1563 1564 1564 1564 1564 1565 1564 1565 1565 1565 1565 1565 1565 1565 1565 1565 1565 1565 1564 1564 1563 1563 1563 1562 1561 1560 1558 1557 1555 1554 1553 1551 1550 1548 1547 1546 1544 1543 1542 1541 1540 1539
1562 1563 1563 1564 1564 1564 1565 1565 1565 1565 1565 1565 1565 1565 1565 1565 1565 1565 1565 1564 1564 1563 1563 1562 1561 1560 1559 1558 1556 1555 1553 1552 1551 1549 1548 1546 1545 1543 1542 1541 1539 1538 1536
1561 1561 1562 1563 1563 1564 1564 1564 1565 1565 1565 1565 1565 1565 1565 1565 1565 1565 1564 1564 1563 1562 1562 1561 1560 1559 1558 1557 1555 1554 1552 1551 1550 1548 1547 1545 1544 1542 1540 1539 1537 1535 1534
1559 1560 1561 1562 1562 1563 1564 1564 1564 1564 1565 1565 1565 1565 1565 1565 1564 1564 1563 1563 1562 1561 1561 1560 1558 1557 1556 1555 1554 1552 1550 1549 1548 1546 1545 1543 1542 1540 1538 1536 1534 1533 1531
1558 1559 1560 1560 1561 1562 1562 1563 1563 1564 1564 1564 1564 1564 1564 1564 1563 1563 1562 1562 1561 1560 1559 1558 1557 1555 1554 1553 1552 1550 1548 1547 1545 1544 1542 1541 1539 1537 1535 1533 1532 1530 1528
1557 1557 1558 1559 1560 1560 1561 1561 1562 1562 1562 1562 1563 1563 1563 1562 1562 1561 1561 1560 1560 1558 1557 1556 1555 1554 1552 1551 1550 1548 1546 1544 1542 1541 1539 1537 1536 1534 1532 1530 1528 1526 1524
1555 1556 1556 1557 1558 1559 1559 1560 1560 1560 1560 1560 1560 1561 1560 1560 1560 1559 1559 1558 1557 1556 1555 1554 1553 1551 1550 1549 1547 1545 1544 1542 1540 1538 1536 1533 1532 1530 1529 1527 1525 1523 1521
1553 1554 1554 1555 1556 1556 1557 1557 1558 1558 1558 1558 1558 1558 1558 1558 1557 1557 1556 1555 1554 1553 1552 1551 1550 1549 1548 1546 1545 1543 1541 1539 1537 1535 1533 1530 1528 1526 1524 1523 1521 1519 1517
1550 1551 1552 1553 1553 1554 1555 1555 1555 1555 1555 1555 1555 1555 1555 1555 1554 1554 1553 1552 1551 1550 1550 1548 1547 1546 1545 1543 1542 1540 1537 1535 1532 1531 1529 1526 1523 1520 1518 1517 1516 1514 1512
1548 1549 1549 1550 1550 1551 1552 1552 1552 1552 1552 1552 1552 1552 1551 1551 1551 1550 1549 1548 1547 1546 1546 1545 1544 1542 1541 1539 1538 1536 1534 1531 1528 1526 1525 1523 1519 1517 1512 1510 1510 1508 1506